�������l�o���
Date,Time,MP-1(��Sv/h),MP-2(��Sv/h),MP-3(��Sv/h),MP-4(��Sv/h),MP-5(��Sv/h),MP-6(��Sv/h),MP-7(��Sv/h),MP-8(��Sv/h),����,����(m/s),���J
2020/05/05,00:00,0.717,1.030,0.677,1.249,0.893,0.409,0.705,0.666,��,6.7,��
2020/05/05,00:10,0.715,1.029,0.675,1.245,0.894,0.407,0.706,0.667,��,5.4,��
2020/05/05,00:20,0.716,1.032,0.676,1.245,0.896,0.408,0.705,0.665,���k��,10.0,��
2020/05/05,00:30,0.716,1.031,0.677,1.248,0.895,0.408,0.708,0.666,���k��,6.4,��
2020/05/05,00:40,0.715,1.029,0.676,1.246,0.896,0.408,0.708,0.667,���k��,3.1,��
2020/05/05,00:50,0.716,1.029,0.677,1.248,0.895,0.407,0.707,0.667,�k�k��,2.3,��
2020/05/05,01:00,0.716,1.028,0.676,1.249,0.896,0.408,0.706,0.666,�k��,2.6,��
2020/05/05,01:10,0.715,1.029,0.676,1.246,0.893,0.407,0.706,0.666,�k��,3.8,��
2020/05/05,01:20,0.714,1.028,0.675,1.246,0.895,0.406,0.705,0.664,�k��,5.1,��
2020/05/05,01:30,0.716,1.029,0.676,1.247,0.896,0.408,0.706,0.665,�k��,6.5,��
2020/05/05,01:40,0.716,1.029,0.677,1.245,0.895,0.407,0.705,0.666,�k��,5.9,��
2020/05/05,01:50,0.718,1.029,0.676,1.248,0.892,0.406,0.706,0.665,�k��,6.6,��
2020/05/05,02:00,0.716,1.029,0.676,1.247,0.895,0.407,0.705,0.666,�k��,5.8,��
2020/05/05,02:10,0.715,1.027,0.677,1.246,0.897,0.409,0.708,0.665,���k��,5.8,��
2020/05/05,02:20,0.715,1.029,0.677,1.249,0.895,0.407,0.708,0.665,�k��,5.1,��
2020/05/05,02:30,0.716,1.029,0.676,1.246,0.896,0.407,0.709,0.666,�k�k��,5.2,��
2020/05/05,02:40,0.715,1.030,0.677,1.250,0.893,0.405,0.708,0.667,�k�k��,4.5,��
2020/05/05,02:50,0.717,1.030,0.675,1.245,0.891,0.407,0.706,0.666,�k�k��,6.3,��
2020/05/05,03:00,0.717,1.029,0.675,1.247,0.894,0.406,0.707,0.664,�k�k��,7.4,��
2020/05/05,03:10,0.715,1.029,0.675,1.246,0.896,0.406,0.707,0.666,�k�k��,5.5,��
2020/05/05,03:20,0.715,1.028,0.675,1.246,0.896,0.405,0.706,0.665,�k�k��,4.9,��
2020/05/05,03:30,0.715,1.030,0.675,1.246,0.894,0.404,0.705,0.666,�k��,5.7,��
2020/05/05,03:40,0.715,1.030,0.676,1.248,0.894,0.406,0.707,0.667,�k��,5.5,��
2020/05/05,03:50,0.716,1.030,0.677,1.247,0.895,0.404,0.707,0.664,�k��,5.0,��
2020/05/05,04:00,0.715,1.030,0.677,1.247,0.895,0.404,0.706,0.666,���k��,3.1,��
2020/05/05,04:10,0.713,1.030,0.676,1.249,0.894,0.405,0.706,0.665,�k��,5.3,��
2020/05/05,04:20,0.713,1.031,0.676,1.246,0.895,0.404,0.707,0.667,�k��,3.7,��
2020/05/05,04:30,0.714,1.031,0.675,1.247,0.893,0.403,0.707,0.666,�k��,3.0,��
2020/05/05,04:40,0.714,1.028,0.674,1.245,0.895,0.404,0.704,0.666,�k��,5.0,��
2020/05/05,04:50,0.713,1.030,0.674,1.244,0.894,0.403,0.704,0.665,�k��,3.0,��
2020/05/05,05:00,0.714,1.025,0.677,1.244,0.894,0.404,0.706,0.665,���k��,6.3,��
2020/05/05,05:10,0.713,1.028,0.676,1.247,0.894,0.404,0.707,0.665,���k��,6.3,��
2020/05/05,05:20,0.714,1.028,0.674,1.246,0.894,0.403,0.706,0.666,�k��,3.7,��
2020/05/05,05:30,0.714,1.029,0.675,1.247,0.893,0.403,0.704,0.664,�k��,1.7,��
2020/05/05,05:40,0.713,1.028,0.675,1.247,0.896,0.404,0.703,0.665,�k��,3.6,��
2020/05/05,05:50,0.713,1.030,0.676,1.248,0.895,0.403,0.703,0.666,�k��,1.7,��
2020/05/05,06:00,0.713,1.029,0.675,1.247,0.894,0.403,0.702,0.665,�k�k��,2.3,��
2020/05/05,06:10,0.714,1.030,0.676,1.247,0.895,0.403,0.704,0.665,�k,2.8,��
2020/05/05,06:20,0.714,1.029,0.677,1.246,0.895,0.404,0.704,0.665,���k��,1.7,��
2020/05/05,06:30,0.714,1.029,0.676,1.247,0.891,0.403,0.704,0.666,���k��,1.2,��
2020/05/05,06:40,0.714,1.028,0.672,1.248,0.893,0.404,0.703,0.666,-,CALM,��
2020/05/05,06:50,0.715,1.028,0.674,1.247,0.894,0.404,0.704,0.664,���k��,2.6,��
2020/05/05,07:00,0.712,1.026,0.673,1.247,0.894,0.402,0.703,0.666,���쐼,1.2,��
2020/05/05,07:10,0.712,1.024,0.673,1.248,0.894,0.402,0.703,0.666,�쐼,2.3,��
2020/05/05,07:20,0.710,1.025,0.673,1.247,0.893,0.403,0.704,0.667,�k��,0.9,��
2020/05/05,07:30,0.712,1.025,0.673,1.245,0.894,0.401,0.703,0.665,�k�k��,3.0,��
2020/05/05,07:40,0.713,1.026,0.674,1.249,0.893,0.404,0.705,0.666,�k,2.6,��
2020/05/05,07:50,0.711,1.025,0.674,1.247,0.894,0.401,0.703,0.663,�k��,3.1,��
2020/05/05,08:00,0.714,1.025,0.676,1.249,0.895,0.402,0.703,0.665,�k,2.0,��
2020/05/05,08:10,0.713,1.026,0.672,1.249,0.893,0.405,0.707,0.664,�k,2.6,��
2020/05/05,08:20,0.712,1.026,0.674,1.248,0.894,0.403,0.704,0.662,�k��,5.6,��
2020/05/05,08:30,0.711,1.028,0.674,1.247,0.894,0.403,0.703,0.662,�k��,4.8,��
2020/05/05,08:40,0.709,1.026,0.672,1.250,0.892,0.402,0.702,0.662,�k��,5.0,��
2020/05/05,08:50,0.709,1.029,0.672,1.248,0.892,0.403,0.703,0.662,�k��,5.2,��
2020/05/05,09:00,0.711,1.028,0.672,1.247,0.892,0.403,0.701,0.661,�k��,4.6,��
2020/05/05,09:10,0.710,1.027,0.671,1.247,0.891,0.402,0.703,0.661,�k�k��,4.2,��
2020/05/05,09:20,0.710,1.028,0.670,1.248,0.891,0.403,0.700,0.662,�k�k��,4.9,��
2020/05/05,09:30,0.710,1.028,0.671,1.249,0.892,0.402,0.702,0.664,�k��,4.5,��
2020/05/05,09:40,0.711,1.029,0.674,1.246,0.894,0.402,0.702,0.663,�k��,4.8,��
2020/05/05,09:50,0.710,1.030,0.672,1.250,0.892,0.403,0.701,0.661,�k��,4.4,��
2020/05/05,10:00,0.710,1.030,0.673,1.246,0.893,0.403,0.701,0.662,�k��,4.8,��
2020/05/05,10:10,0.711,1.027,0.673,1.248,0.893,0.404,0.702,0.662,�k��,5.7,��
2020/05/05,10:20,0.711,1.029,0.672,1.245,0.893,0.402,0.703,0.661,�k��,5.4,��
2020/05/05,10:30,0.711,1.031,0.673,1.246,0.895,0.402,0.704,0.663,�k��,4.2,��
2020/05/05,10:40,0.710,1.031,0.671,1.247,0.894,0.402,0.702,0.661,�k��,4.0,��
2020/05/05,10:50,0.713,1.031,0.674,1.248,0.896,0.402,0.703,0.662,�k�k��,4.3,��
2020/05/05,11:00,0.711,1.032,0.672,1.249,0.895,0.402,0.703,0.661,�k�k��,3.6,��
2020/05/05,11:10,0.712,1.030,0.673,1.249,0.896,0.403,0.705,0.663,�k��,2.6,��
2020/05/05,11:20,0.712,1.031,0.674,1.248,0.894,0.402,0.704,0.662,�k�k��,2.5,��
2020/05/05,11:30,0.712,1.033,0.672,1.246,0.895,0.403,0.703,0.661,���k��,2.6,��
2020/05/05,11:40,0.712,1.031,0.673,1.243,0.897,0.403,0.704,0.663,���k��,1.4,��
2020/05/05,11:50,0.710,1.031,0.673,1.245,0.898,0.402,0.704,0.663,�k�k��,1.7,��
2020/05/05,12:00,0.712,1.031,0.674,1.245,0.895,0.404,0.705,0.663,�k�k��,2.5,��
2020/05/05,12:10,0.714,1.031,0.672,1.247,0.897,0.403,0.704,0.662,�k�k��,3.4,��
2020/05/05,12:20,0.714,1.032,0.675,1.247,0.897,0.403,0.705,0.664,�k�k��,3.5,��
2020/05/05,12:30,0.715,1.033,0.673,1.247,0.898,0.404,0.703,0.663,�k�k��,4.5,��
2020/05/05,12:40,0.713,1.033,0.674,1.248,0.897,0.403,0.705,0.664,�k�k��,5.2,��
2020/05/05,12:50,0.714,1.033,0.674,1.248,0.897,0.402,0.706,0.662,�k�k��,4.1,��
2020/05/05,13:00,0.712,1.033,0.677,1.246,0.899,0.403,0.704,0.664,�k�k��,5.0,��
2020/05/05,13:10,0.713,1.033,0.675,1.248,0.897,0.402,0.703,0.663,�k�k��,5.8,��
2020/05/05,13:20,0.712,1.031,0.673,1.249,0.899,0.404,0.703,0.664,�k�k��,4.5,��
2020/05/05,13:30,0.712,1.035,0.674,1.249,0.899,0.404,0.704,0.663,�k�k��,5.1,��
2020/05/05,13:40,0.714,1.032,0.674,1.251,0.898,0.403,0.703,0.665,�k�k��,4.0,��
2020/05/05,13:50,0.715,1.034,0.674,1.252,0.898,0.402,0.703,0.665,�k��,3.5,��
2020/05/05,14:00,0.714,1.034,0.674,1.251,0.898,0.402,0.703,0.664,�k��,2.2,��
2020/05/05,14:10,0.713,1.034,0.674,1.249,0.897,0.402,0.703,0.662,���k��,2.3,��
2020/05/05,14:20,0.713,1.033,0.674,1.246,0.897,0.403,0.704,0.663,�k��,2.6,��
2020/05/05,14:30,0.713,1.033,0.675,1.249,0.898,0.402,0.704,0.663,���k��,2.6,��
2020/05/05,14:40,0.712,1.033,0.673,1.247,0.897,0.403,0.702,0.662,���k��,2.9,��
2020/05/05,14:50,0.714,1.033,0.675,1.247,0.897,0.401,0.703,0.663,���k��,2.2,��
2020/05/05,15:00,0.713,1.033,0.674,1.250,0.897,0.403,0.705,0.662,���k��,2.0,��
2020/05/05,15:10,0.714,1.033,0.674,1.248,0.899,0.401,0.704,0.663,���k��,1.4,��
2020/05/05,15:20,0.714,1.031,0.674,1.249,0.896,0.402,0.702,0.663,���k��,1.5,��
2020/05/05,15:30,0.711,1.032,0.673,1.250,0.896,0.401,0.704,0.662,��,1.2,��
2020/05/05,15:40,0.715,1.033,0.673,1.248,0.899,0.402,0.702,0.664,���k��,1.5,��
2020/05/05,15:50,0.713,1.032,0.674,1.248,0.897,0.401,0.704,0.662,���k��,2.3,��
2020/05/05,16:00,0.714,1.032,0.676,1.250,0.899,0.402,0.704,0.662,���k��,1.7,��
2020/05/05,16:10,0.712,1.034,0.672,1.248,0.895,0.402,0.703,0.663,��,1.5,��
2020/05/05,16:20,0.713,1.034,0.675,1.247,0.897,0.401,0.704,0.662,�쓌,1.7,��
2020/05/05,16:30,0.711,1.036,0.674,1.247,0.898,0.404,0.704,0.664,���쓌,1.9,��
2020/05/05,16:40,0.712,1.032,0.673,1.246,0.898,0.403,0.704,0.664,���쓌,1.7,��
2020/05/05,16:50,0.712,1.036,0.675,1.250,0.897,0.404,0.704,0.663,�쓌,2.2,��
2020/05/05,17:00,0.710,1.035,0.675,1.248,0.898,0.404,0.703,0.663,�쓌,2.3,��
2020/05/05,17:10,0.711,1.036,0.674,1.249,0.898,0.405,0.703,0.665,���쓌,1.9,��
2020/05/05,17:20,0.713,1.038,0.675,1.249,0.896,0.405,0.703,0.664,��,2.0,��
2020/05/05,17:30,0.712,1.036,0.674,1.252,0.895,0.403,0.703,0.664,���쓌,1.5,��
2020/05/05,17:40,0.711,1.035,0.675,1.252,0.894,0.405,0.703,0.665,��쓌,1.2,��
2020/05/05,17:50,0.713,1.036,0.675,1.252,0.897,0.404,0.703,0.665,��,2.0,��
2020/05/05,18:00,0.710,1.037,0.673,1.252,0.896,0.404,0.705,0.666,��,1.7,��
2020/05/05,18:10,0.713,1.037,0.674,1.250,0.896,0.403,0.702,0.665,���k��,2.6,��
2020/05/05,18:20,0.712,1.037,0.675,1.252,0.896,0.404,0.704,0.665,���k��,3.0,��
2020/05/05,18:30,0.714,1.037,0.674,1.253,0.898,0.404,0.702,0.666,�k��,3.4,��
2020/05/05,18:40,0.713,1.036,0.675,1.253,0.897,0.404,0.703,0.665,�k��,4.3,��
2020/05/05,18:50,0.714,1.035,0.673,1.251,0.897,0.404,0.704,0.666,�k�k��,4.8,��
2020/05/05,19:00,0.713,1.036,0.674,1.251,0.898,0.404,0.706,0.664,�k�k��,6.0,��
2020/05/05,19:10,0.713,1.034,0.675,1.248,0.899,0.404,0.703,0.664,�k��,7.2,��
2020/05/05,19:20,0.710,1.038,0.676,1.249,0.896,0.405,0.703,0.664,�k��,7.6,��
2020/05/05,19:30,0.712,1.035,0.674,1.249,0.896,0.403,0.704,0.665,�k�k��,7.7,��
2020/05/05,19:40,0.711,1.035,0.675,1.251,0.896,0.404,0.703,0.665,�k��,7.7,��
2020/05/05,19:50,0.711,1.036,0.674,1.251,0.896,0.402,0.704,0.665,�k��,5.9,��
2020/05/05,20:00,0.713,1.035,0.675,1.250,0.896,0.402,0.702,0.666,�k�k��,5.1,��
2020/05/05,20:10,0.711,1.034,0.672,1.249,0.897,0.402,0.704,0.664,�k,3.3,��
2020/05/05,20:20,0.712,1.035,0.674,1.250,0.898,0.403,0.703,0.664,�k,5.0,��
2020/05/05,20:30,0.712,1.038,0.674,1.249,0.898,0.403,0.703,0.665,�k�k��,5.5,��
2020/05/05,20:40,0.713,1.036,0.675,1.251,0.899,0.403,0.703,0.663,�k�k��,3.8,��
2020/05/05,20:50,0.712,1.036,0.675,1.249,0.900,0.402,0.701,0.664,�k�k��,3.0,��
2020/05/05,21:00,0.711,1.036,0.676,1.250,0.901,0.402,0.702,0.664,�k�k��,3.2,��
2020/05/05,21:10,0.712,1.036,0.675,1.250,0.899,0.403,0.703,0.665,�k�k��,3.0,��
2020/05/05,21:20,0.713,1.035,0.676,1.251,0.898,0.402,0.702,0.664,�k�k��,2.2,��
2020/05/05,21:30,0.710,1.035,0.674,1.250,0.899,0.401,0.704,0.667,�k�k��,2.8,��
2020/05/05,21:40,0.711,1.036,0.673,1.248,0.899,0.401,0.704,0.664,�k�k��,4.1,��
2020/05/05,21:50,0.711,1.035,0.674,1.250,0.897,0.402,0.703,0.664,�k�k��,3.6,��
2020/05/05,22:00,0.713,1.032,0.674,1.251,0.899,0.402,0.703,0.664,�k��,3.5,��
2020/05/05,22:10,0.714,1.035,0.676,1.252,0.898,0.402,0.701,0.665,�k�k��,4.1,�L
2020/05/05,22:20,0.713,1.037,0.674,1.250,0.897,0.402,0.702,0.666,�k�k��,3.9,�L
2020/05/05,22:30,0.711,1.035,0.674,1.251,0.899,0.401,0.702,0.666,�k�k��,4.0,�L
2020/05/05,22:40,0.711,1.034,0.674,1.250,0.899,0.403,0.702,0.664,�k�k��,4.0,�L
2020/05/05,22:50,0.712,1.035,0.676,1.251,0.899,0.401,0.701,0.665,�k�k��,3.8,�L
2020/05/05,23:00,0.714,1.034,0.673,1.250,0.897,0.402,0.702,0.666,�k��,3.0,�L
2020/05/05,23:10,0.713,1.033,0.674,1.252,0.900,0.402,0.703,0.666,�k��,1.7,�L
2020/05/05,23:20,0.713,1.036,0.674,1.252,0.899,0.402,0.701,0.664,�k��,2.8,�L
2020/05/05,23:30,0.712,1.032,0.675,1.252,0.896,0.403,0.701,0.664,�k�k��,4.0,�L
2020/05/05,23:40,0.712,1.033,0.675,1.249,0.895,0.403,0.701,0.663,�k�k��,3.0,�L
2020/05/05,23:50,0.709,1.032,0.673,1.248,0.893,0.404,0.699,0.664,�k�k��,3.8,�L
